Location: Kirchberg
(47.4114°N, 9.0398°E)
Time: 21:34:18
(UTC+00:00)

Meteor 1-11 Rocket - Pass Details

Date: 03 March 2021
Orbit: 831 x 916 km, 81.2° (Epoch: 14 April)

Event Time Altitude Azimuth Distance (km) Brightness Sun altitude
Rises 19:23:47 0° 189° (S) 3,465 6.8 -22.9°
Reaches altitude 10° 19:26:14 10° 189° (S) 2,518 6.1 -23.3°
Maximum altitude 19:31:58 89° 99° (E) 867 3.6 -24.2°
Drops below altitude 10° 19:37:37 10° 12° (NNE) 2,481 6.2 -25.1°
Sets 19:40:01 0° 12° (NNE) 3,411 6.9 -25.5°
